Regional Weather Roundup
Issued by NWS Kansas City/Pleasant Hill, MO

Home | Current Version | Previous Version | Graphics & Text | Print | Product List | Glossary Off
Versions: 1 2 3 4 5 6 7 8 9 10 11 12 13 14 15 16 17 18 19 20 21 22 23 24 25 26 27

000
ASUS43 KEAX 291210
RWREAX

WEATHER ROUNDUP FOR EASTERN KANSAS AND NORTHWEST MISSOURI
NATIONAL WEATHER SERVICE KANSAS CITY/PLEASANT HILL MO
700 AM CDT THU SEP 29 2016

KSZ040-057-103>105-MOZ028-029-037-043-291300-
...KANSAS CITY METROPOLITAN AREA...

CITY           SKY/WX    TMP DP  RH WIND       PRES   REMARKS
K.C. INTL      CLEAR     48  44  86 N5        30.33R
6HR MIN TEMP:  48; 6HR MAX TEMP:  51;

K.C. DOWNTOWN  CLEAR     52  48  86 N3        30.33R
6HR MIN TEMP:  52; 6HR MAX TEMP:  56;

LEES SUMMIT    CLEAR     50  47  89 N9        30.33R
6HR MIN TEMP:  50; 6HR MAX TEMP:  53;

OLATHE - IXD   CLEAR     48  47  96 NW7       30.35R
6HR MIN TEMP:  47; 6HR MAX TEMP:  51;

OLATHE - OJC   CLEAR     49  46  90 N6        30.33R
6HR MIN TEMP:  48; 6HR MAX TEMP:  53;

LAWRENCE       CLEAR     47  46  97 W5        30.35R

$$

MOZ001>008-011>017-020>025-030>033-038>040-044>046-053-054-291300-
...NORTHERN AND CENTRAL MISSOURI...

CITY           SKY/WX    TMP DP  RH WIND       PRES   REMARKS
ST. JOSEPH     CLEAR     46  44  93 NW6       30.36R
6HR MIN TEMP:  45; 6HR MAX TEMP:  50;

MOSBY          SUNNY     48  46  93 NW3       30.34R
WHITEMAN AFB   CLEAR     47  47 100 N7        30.29R
6HR MIN TEMP:  47; 6HR MAX TEMP:  51;

CLINTON        CLEAR     46  46 100 CALM      30.30R
SEDALIA        CLEAR     49  47  93 N8        30.30R
6HR MIN TEMP:  49; 6HR MAX TEMP:  53;

WARSAW         NOT AVBL
CHILLICOTHE      N/A     51  48  89 NW5       30.33R
6HR MIN TEMP:  51; 6HR MAX TEMP:  55;

KIRKSVILLE     CLEAR     49  46  90 NW7       30.29R
6HR MIN TEMP:  48; 6HR MAX TEMP:  53;


$$

MOZ041-047>049-056>058-063>065-088>090-097-291300-
...EASTERN AND SOUTHERN MISSOURI...

CITY           SKY/WX    TMP DP  RH WIND       PRES   REMARKS
ST. LOUIS INTL PTCLDY    54  48  80 NW8       30.16R
6HR MIN TEMP:  54; 6HR MAX TEMP:  57;

SPIRIT OF STL  CLEAR     53  50  89 NW8       30.17R
COLUMBIA       CLEAR     50  48  93 NW10      30.25R
JEFFERSON CITY CLEAR     51  49  92 NW6       30.25R
ROLLA          CLEAR     48  47  96 MISG      30.21R
OSAGE BEACH    CLEAR     50  48  93 NW5       30.27R
SPRINGFIELD    CLEAR     48  45  89 NW5       30.26R
BRANSON        CLEAR     48  46  93 N3        30.26R
JOPLIN         CLEAR     45  44  97 N6        30.30R
WEST PLAINS    CLEAR     50  47  89 N8        30.23R

$$

IAZ060-094-KSZ022-034>040-054-083-096-NEZ052-066-093-291300-
...KANSAS...SOUTHEAST NEBRASKA AND IOWA...

CITY           SKY/WX    TMP DP  RH WIND       PRES   REMARKS
TOPEKA         CLEAR     50  46  86 CALM      30.36R
6HR MIN TEMP:  49; 6HR MAX TEMP:  52;

MANHATTAN      CLEAR     44  43  96 CALM      30.39R
EMPORIA        CLEAR     47  46  97 W6        30.36R
CHANUTE        CLEAR     49  46  90 N6        30.33R
WICHITA        PTCLDY    49  46  90 NW7       30.37R
OMAHA          CLEAR     45  41  86 N7        30.41R
LINCOLN        CLEAR     43  41  93 CALM      30.43R
FALLS CITY     CLEAR     46  45  96 NW6       30.37R
LAMONI         CLEAR     49  48  97 N10       30.34R
DES MOINES     PTCLDY    52  49  89 N8        30.36R

$$





USA.gov is the U.S. government's official web portal to all federal, state and local government web resources and services.